Wetbulb
30.68 24.74 18.68 21.03 23.49 23.53 22.80 20.68 19.22 20.60 25.35 24.82 24.42 22.69 24.27 26.53 26.99 25.94 26.73 28.03 28.48 29.79 33.26 35.65 36.64 37.44 38.44 39.46 40.36 42.96 43.93 45.88 47.93 51.06 56.75 64.51 64.28 65.37 66.04 66.25 66.27 66.56 66.22 65.41
24.21 21.00 24.67 26.54 25.45 23.19 21.40 19.15 18.68 21.29 25.55 24.34 21.29 19.62 22.86 25.67 25.53 26.29 25.93 26.17 26.90 28.23 30.39 33.16 34.51 35.44 36.99 37.94 39.48 41.59 42.80 44.66 46.55 49.55 50.65 57.38 65.25 65.55 65.49 65.91 65.86 66.20 65.77 65.05
21.52 24.12 28.77 25.83 22.49 20.26 19.03 17.53 17.81 17.87 22.22 23.03 21.15 18.25 19.96 25.43 26.44 27.53 27.32 27.51 27.84 27.51 28.08 30.43 32.06 33.57 35.45 36.63 38.34 40.05 41.65 43.25 45.63 48.23 50.23 56.21 64.50 64.36 64.09 64.48 64.32 65.52 65.40 64.66
23.96 27.24 25.40 22.22 20.25 20.69 15.85 22.41 20.76 19.43 17.25 10.96 20.24 9.03 17.73 21.41 22.16 24.29 25.39 25.36 26.07 26.69 28.59 30.08 30.46 31.99 34.55 36.79 39.04 40.01 41.63 42.60 45.04 45.91 48.05 50.16 56.99 62.02 63.48 63.84 64.33 64.59 65.26 64.02
21.38 22.01 21.66 19.33 20.76 23.01 18.25 23.55 20.50 19.83 16.48 16.11 16.09 11.10 16.25 21.00 18.62 20.90 23.21 25.10 25.94 27.05 27.96 28.58 29.89 31.41 35.01 36.73 37.39 39.06 40.01 41.83 43.21 44.19 46.42 48.14 50.75 58.97 63.91 63.35 63.02 63.62 64.02 63.58
23.13 26.45 24.21 21.66 24.98 23.56 24.81 20.76 20.14 19.85 16.87 11.06 15.72 14.93 12.26 16.17 19.56 21.21 23.78 24.92 25.96 26.77 27.66 29.12 30.86 32.01 33.28 35.46 36.54 38.01 39.12 40.10 41.88 42.83 44.00 46.55 47.53 50.63 58.35 62.01 62.22 62.80 63.27 63.15
19.60 20.47 24.25 26.22 19.23 23.02 21.71 16.73 9.27 8.62 11.12 8.38 17.06 12.17 13.77 20.37 22.70 23.59 23.25 23.91 25.95 27.11 27.47 27.95 28.64 29.89 31.43 32.82 34.47 37.13 37.82 39.37 40.67 41.56 42.56 45.41 46.67 48.73 53.01 59.25 62.15 61.86 62.27 62.54
10.14 12.08 19.85 25.22 20.52 16.09 17.74 17.65 11.06 5.40 7.90 10.16 16.63 7.81 11.88 23.10 25.94 25.74 26.68 26.55 26.88 26.76 27.81 27.98 29.02 29.68 30.81 32.07 33.77 35.48 36.64 38.24 39.85 40.60 41.69 43.87 46.99 47.62 51.94 55.51 61.85 62.23 62.04 62.49
11.53 12.70 21.87 24.86 24.81 21.61 14.54 14.04 20.61 16.53 16.51 9.58 10.63 11.89 20.08 22.30 22.64 24.71 24.97 25.84 25.02 26.60 27.54 28.27 29.26 29.78 30.74 31.88 33.16 34.14 35.32 37.11 39.06 40.16 41.27 42.94 44.87 46.00 48.05 51.00 55.61 62.66 62.90 62.74
18.32 10.93 20.58 22.85 23.52 22.91 18.76 20.96 12.60 14.60 3.20 -0.58 8.22 7.37 8.82 15.11 18.12 21.58 21.96 23.50 24.96 26.62 27.17 28.53 29.33 29.94 30.86 32.02 33.52 34.04 34.55 35.78 37.56 39.49 40.58 41.85 43.37 44.87 46.83 49.28 52.70 54.39 62.67 62.87
17.14 16.07 17.02 20.24 13.04 12.70 13.81 13.36 12.92 13.04 12.70 5.81 2.48 3.46 18.02 16.97 19.92 20.22 21.99 23.74 24.85 26.09 27.60 28.51 29.45 30.40 30.93 31.98 32.46 33.49 33.57 34.43 35.98 38.27 40.03 41.01 42.39 43.09 44.78 46.50 48.70 51.45 60.39 62.89
20.31 17.28 11.51 13.92 20.70 21.86 16.35 14.09 16.93 6.48 6.79 11.05 5.09 2.69 21.26 20.72 22.04 22.54 22.30 23.98 25.34 26.71 28.01 29.18 29.67 30.65 30.53 30.76 31.50 32.22 33.13 33.79 35.53 36.99 39.51 40.02 41.34 41.93 42.86 43.79 45.58 48.90 52.20 59.20
21.44 14.10 6.38 11.84 15.02 17.98 14.19 17.40 17.30 16.02 6.62 -6.12 1.26 -0.08 21.05 21.42 20.74 21.94 20.70 22.61 23.91 25.86 27.63 28.47 29.05 29.70 30.45 30.77 31.09 31.53 32.33 33.62 34.96 36.29 38.05 39.29 39.95 40.72 41.51 42.45 43.75 45.81 48.77 53.10
25.39 16.09 10.16 3.33 8.80 16.08 9.54 15.85 15.92 8.15 3.51 -3.68 3.73 7.24 11.40 15.86 10.25 15.13 17.75 20.39 21.95 24.05 26.22 27.31 28.02 28.57 29.96 30.62 30.72 31.09 31.62 33.49 34.08 35.52 35.79 37.67 38.60 40.04 41.09 41.60 42.76 43.47 45.53 49.02
20.92 13.99 16.76 18.06 19.57 18.08 9.43 13.86 14.46 3.24 -1.09 0.39 2.56 2.76 7.45 9.78 8.76 11.76 16.53 20.00 20.44 21.63 23.64 25.62 26.82 27.43 28.71 29.68 30.37 30.45 31.44 32.95 33.53 34.37 34.34 35.53 37.83 39.63 40.47 40.80 41.38 42.23 43.32 45.10
20.79 14.70 17.92 16.39 19.05 13.34 16.35 13.59 14.23 14.81 0.38 2.97 2.90 7.21 13.73 18.18 18.29 11.65 16.05 16.92 17.82 19.92 22.12 24.92 26.54 27.50 27.81 28.92 29.91 30.10 30.85 32.11 33.26 32.94 33.74 34.73 35.85 37.90 38.41 40.26 39.86 40.88 40.79 41.73
19.21 15.73 14.52 11.71 14.26 16.09 10.71 13.93 12.89 12.74 12.42 4.69 3.39 6.65 10.65 15.10 17.91 11.78 12.84 18.20 16.89 18.70 22.34 24.33 25.52 26.64 27.68 28.86 29.84 29.47 30.35 31.92 32.00 31.76 33.15 33.89 34.68 35.17 36.70 38.29 37.74 38.82 38.94 39.96
19.76 17.22 16.71 11.51 12.60 -8.41 11.28 18.17 17.17 10.72 16.87 13.54 12.32 9.16 10.74 12.39 17.16 20.25 20.71 15.85 18.83 21.32 22.88 24.22 25.64 26.87 28.21 29.56 30.09 30.37 30.76 31.19 31.36 31.38 32.24 32.93 33.71 33.72 35.01 36.82 37.15 37.16 38.01 38.42
21.79 18.01 11.69 1.70 5.19 11.23 15.30 18.60 14.96 12.33 11.25 18.73 15.90 15.98 17.24 20.14 19.26 19.38 24.15 24.21 22.58 22.93 24.63 24.64 25.77 27.47 28.09 28.68 29.96 29.69 29.85 30.70 31.16 30.85 31.19 32.50 32.93 32.65 34.06 34.26 36.79 37.38 36.97 37.52
22.41 20.66 11.60 9.39 3.66 -4.57 12.10 19.22 21.03 20.44 7.92 19.73 20.65 19.10 16.05 17.35 9.61 12.22 22.67 24.83 24.56 24.59 24.74 25.08 26.02 27.26 27.77 28.54 29.57 28.93 29.07 29.62 29.51 31.01 31.87 32.18 32.26 32.11 32.89 34.48 36.00 36.71 36.84 36.90
16.13 15.07 6.81 8.38 -2.11 4.97 18.44 20.80 24.07 10.73 10.73 21.16 20.95 20.84 20.19 14.14 16.80 21.79 24.87 24.76 23.89 23.82 24.70 26.57 26.38 25.50 27.24 28.68 28.78 27.72 28.19 28.14 30.32 31.70 32.31 32.05 32.00 31.70 33.09 34.71 35.81 36.53 35.65 36.09
13.69 5.60 3.90 8.64 -3.81 -3.58 21.45 22.13 15.15 18.74 22.28 22.49 22.35 22.13 22.88 23.25 24.76 25.09 24.84 23.78 23.28 22.89 24.05 25.27 25.06 25.46 27.11 28.19 27.82 26.71 26.50 29.18 30.39 31.06 31.16 31.27 31.40 31.89 32.84 33.28 35.37 35.82 35.22 34.70
12.31 14.58 7.68 11.77 10.54 19.88 23.81 23.19 24.82 23.46 22.04 22.94 21.68 23.12 23.85 22.95 23.29 23.87 22.74 21.93 22.08 22.74 23.11 25.13 24.53 25.01 26.29 26.85 26.88 25.54 27.04 28.96 29.87 30.40 29.87 30.31 31.05 31.59 31.82 32.12 33.78 34.12 34.67 33.72
20.33 22.07 17.04 17.30 20.27 20.76 22.91 24.69 25.77 26.24 24.50 24.25 24.02 23.04 23.50 22.49 22.84 22.00 21.37 21.22 21.22 21.99 23.18 24.69 24.42 24.04 24.10 25.46 26.35 27.12 28.46 29.30 29.31 29.11 28.90 29.56 29.67 30.31 31.10 31.80 33.18 35.66 34.11 33.24
19.85 20.91 18.89 18.30 21.35 22.17 22.51 23.11 24.44 25.34 23.76 24.01 24.92 24.28 22.82 21.75 21.30 20.99 20.91 20.72 21.71 22.82 23.74 24.35 23.52 23.21 23.29 25.34 26.55 28.81 29.94 30.46 29.27 28.92 28.42 28.55 29.25 29.08 29.90 31.00 31.50 34.74 36.50 35.08
20.22 18.35 15.59 14.15 21.58 20.39 20.74 22.00 23.48 21.99 21.92 24.34 22.58 22.46 22.83 21.14 20.66 21.49 20.38 21.57 22.63 23.11 23.60 23.27 23.13 23.24 24.80 26.80 26.67 26.67 30.53 28.83 28.04 28.08 28.04 28.12 28.16 28.71 29.51 29.95 30.72 33.35 34.14 35.24
MSLP
1022.10 1023.44 1025.84 1026.79 1027.13 1027.33 1027.19 1026.63 1025.89 1025.01 1025.03 1025.27 1026.03 1026.77 1027.14 1027.09 1026.84 1026.79 1026.75 1026.14 1025.47 1024.60 1023.93 1022.96 1021.93 1020.88 1019.72 1018.85 1017.79 1016.69 1015.80 1015.02 1014.07 1013.04 1011.89 1010.37 1010.14 1010.45 1010.91 1011.20 1011.50 1011.67 1012.28 1012.68
1024.10 1025.70 1027.18 1027.46 1027.69 1027.87 1027.82 1027.37 1026.43 1025.49 1025.67 1026.46 1026.88 1027.44 1027.58 1027.52 1027.59 1027.55 1027.44 1026.91 1026.30 1025.32 1024.08 1022.95 1022.10 1021.13 1019.93 1019.09 1018.46 1017.45 1016.55 1015.66 1014.80 1013.94 1012.78 1011.21 1009.49 1010.01 1010.47 1010.82 1011.08 1011.36 1011.72 1012.27
1025.79 1027.40 1027.66 1027.89 1028.23 1028.06 1028.42 1027.76 1027.30 1026.99 1026.42 1026.63 1026.79 1027.73 1027.92 1028.07 1028.15 1028.07 1027.89 1027.60 1026.84 1025.88 1024.76 1023.60 1022.57 1021.74 1020.59 1019.54 1018.72 1017.98 1017.18 1016.32 1015.23 1014.29 1012.83 1011.03 1009.26 1009.52 1010.04 1010.50 1010.70 1010.83 1011.20 1011.88
1027.03 1027.82 1027.93 1028.31 1028.66 1028.63 1027.95 1027.44 1027.12 1026.49 1026.91 1026.80 1026.24 1027.30 1028.22 1028.45 1028.54 1028.53 1028.17 1027.70 1027.05 1026.04 1025.11 1024.17 1023.10 1022.09 1021.16 1020.43 1019.63 1018.42 1017.58 1016.70 1015.65 1014.76 1013.68 1012.53 1010.60 1009.33 1009.26 1009.65 1010.23 1010.49 1010.65 1011.30
1028.33 1028.47 1028.27 1028.61 1028.80 1028.66 1028.23 1027.06 1026.33 1025.60 1025.92 1027.13 1026.67 1028.21 1029.31 1029.01 1028.76 1028.69 1028.50 1027.90 1027.05 1026.12 1025.17 1024.22 1023.52 1022.77 1021.97 1021.06 1019.99 1018.84 1017.87 1016.95 1016.02 1015.21 1014.28 1013.26 1011.55 1010.33 1009.00 1009.31 1010.13 1010.37 1010.49 1010.69
1028.87 1028.86 1028.84 1029.07 1028.16 1028.13 1027.86 1026.98 1025.13 1024.98 1025.65 1026.80 1026.53 1028.03 1030.21 1030.06 1030.32 1029.58 1028.97 1028.46 1027.58 1026.33 1025.23 1024.32 1023.82 1023.24 1022.37 1021.27 1020.19 1019.13 1018.17 1017.32 1016.38 1015.46 1014.58 1013.42 1012.44 1011.42 1009.88 1009.18 1009.71 1010.10 1010.18 1010.42
1029.88 1029.65 1029.35 1029.27 1028.91 1027.60 1027.84 1027.43 1026.84 1026.31 1026.45 1027.96 1028.43 1029.55 1031.36 1031.64 1031.35 1030.80 1029.96 1028.60 1027.51 1026.52 1025.43 1024.63 1023.86 1023.16 1022.42 1021.37 1020.43 1019.42 1018.57 1017.44 1016.66 1015.76 1014.87 1014.05 1012.81 1012.09 1010.45 1009.58 1009.16 1009.57 1009.95 1009.95
1031.30 1030.29 1030.25 1029.98 1030.45 1030.35 1029.61 1029.77 1029.70 1028.52 1027.93 1028.81 1029.54 1031.30 1032.70 1032.17 1031.48 1030.73 1029.66 1028.70 1027.71 1026.59 1025.77 1025.16 1024.42 1023.78 1022.81 1021.80 1020.87 1019.79 1018.95 1017.87 1017.00 1016.31 1015.52 1014.38 1013.67 1012.26 1011.04 1010.34 1008.97 1008.51 1009.22 1009.51
1032.13 1031.60 1031.00 1030.77 1030.55 1030.98 1030.51 1030.17 1029.63 1029.35 1029.39 1030.10 1031.91 1032.76 1031.94 1031.83 1031.23 1030.42 1029.47 1028.46 1027.84 1026.95 1026.02 1025.38 1024.62 1023.87 1022.97 1021.99 1021.17 1020.15 1019.30 1018.37 1017.41 1016.67 1015.77 1014.70 1013.42 1012.46 1011.47 1010.66 1009.59 1008.22 1008.37 1009.03
1032.67 1032.53 1031.50 1031.04 1031.16 1031.33 1031.69 1031.41 1030.69 1030.58 1030.99 1031.61 1032.80 1033.60 1033.50 1032.33 1031.53 1030.77 1029.88 1028.97 1028.16 1027.32 1026.42 1025.51 1024.57 1023.73 1023.08 1022.32 1021.48 1020.48 1019.59 1018.70 1017.69 1016.84 1016.05 1015.19 1014.17 1012.93 1012.17 1010.97 1009.97 1008.59 1007.64 1008.53
1032.58 1033.12 1032.37 1032.02 1032.66 1032.87 1032.67 1032.53 1032.46 1032.44 1032.94 1033.45 1034.10 1034.78 1033.92 1033.27 1032.35 1031.55 1030.65 1029.81 1028.90 1027.91 1026.91 1025.95 1024.90 1024.05 1023.30 1022.60 1021.70 1020.62 1019.78 1018.89 1017.85 1017.04 1016.43 1015.57 1014.36 1013.31 1012.28 1011.37 1010.26 1009.65 1008.26 1008.28
1032.44 1033.07 1033.28 1032.99 1033.13 1033.18 1033.63 1033.97 1033.81 1034.29 1035.09 1035.22 1035.40 1035.39 1034.06 1033.58 1032.90 1032.14 1031.41 1030.52 1029.47 1028.60 1027.62 1026.50 1025.41 1024.50 1023.54 1022.81 1021.88 1020.94 1020.19 1019.32 1018.18 1017.53 1016.84 1015.79 1014.51 1013.32 1012.53 1011.85 1011.41 1010.33 1009.48 1008.03
1032.30 1033.16 1033.54 1033.24 1033.81 1033.98 1034.63 1034.68 1034.91 1035.27 1036.42 1037.24 1036.96 1036.07 1034.31 1034.09 1033.63 1032.79 1032.15 1031.15 1030.17 1029.27 1028.21 1027.14 1026.12 1025.20 1024.09 1022.90 1022.22 1021.48 1020.74 1019.83 1018.47 1018.04 1017.38 1016.09 1014.75 1013.65 1012.73 1012.05 1011.48 1010.81 1009.60 1008.20
1032.10 1033.39 1034.20 1034.69 1034.50 1034.92 1035.45 1035.57 1035.67 1036.37 1037.81 1038.71 1038.10 1036.96 1035.49 1034.85 1034.62 1033.53 1032.64 1031.62 1030.75 1029.80 1028.78 1027.73 1026.79 1025.70 1024.53 1023.48 1022.53 1022.04 1021.16 1020.40 1019.17 1018.76 1017.87 1016.57 1015.16 1014.13 1013.14 1012.48 1011.91 1011.04 1010.37 1009.34
1032.58 1033.44 1033.91 1034.14 1034.33 1034.74 1035.52 1035.88 1036.31 1037.41 1038.48 1039.07 1038.11 1037.70 1036.20 1035.42 1034.94 1034.00 1033.03 1032.03 1031.13 1030.18 1029.14 1028.12 1027.19 1026.17 1025.13 1023.99 1022.90 1022.14 1021.33 1020.47 1019.41 1018.94 1017.99 1017.05 1015.79 1014.57 1013.65 1012.82 1012.28 1011.58 1010.88 1009.98
1032.96 1033.31 1033.68 1033.88 1034.10 1034.85 1035.31 1035.54 1036.16 1036.90 1038.36 1038.44 1037.95 1037.27 1035.58 1034.91 1034.25 1034.05 1032.93 1032.18 1031.46 1030.39 1029.30 1028.27 1027.37 1026.41 1025.36 1024.43 1023.36 1022.37 1021.48 1020.69 1019.81 1019.24 1018.32 1017.38 1016.07 1015.03 1014.00 1013.24 1012.44 1011.37 1010.46 1010.18
1033.24 1033.67 1033.92 1034.09 1034.54 1035.24 1035.10 1034.68 1035.60 1036.16 1036.61 1037.18 1037.33 1036.28 1035.42 1034.92 1034.17 1033.60 1032.69 1032.08 1031.38 1030.39 1029.25 1028.27 1027.41 1026.46 1025.51 1024.49 1023.65 1022.81 1021.87 1020.86 1020.00 1019.09 1018.05 1017.27 1016.45 1015.42 1014.18 1013.54 1012.64 1011.64 1010.56 1009.56
1033.26 1033.81 1034.33 1034.90 1035.32 1035.39 1034.22 1033.89 1034.23 1035.09 1035.04 1035.40 1035.44 1035.32 1034.59 1034.17 1033.58 1032.74 1031.79 1031.51 1030.82 1029.96 1029.09 1028.23 1027.30 1026.36 1025.48 1024.66 1023.86 1023.09 1022.09 1021.26 1020.24 1019.26 1018.43 1017.54 1016.83 1015.77 1014.56 1013.61 1012.55 1011.47 1010.58 1009.84
1033.24 1033.96 1034.87 1035.62 1035.86 1034.93 1033.80 1033.50 1033.64 1034.03 1033.63 1033.35 1033.65 1033.67 1033.41 1033.03 1032.86 1032.06 1031.00 1030.45 1030.05 1029.53 1028.76 1028.08 1027.22 1026.30 1025.45 1024.71 1023.95 1023.23 1022.55 1021.78 1020.93 1020.12 1019.45 1018.47 1017.20 1015.99 1014.84 1013.83 1012.64 1011.43 1010.42 1009.79
1033.29 1033.91 1035.19 1036.07 1036.55 1035.63 1033.71 1032.86 1032.66 1033.17 1033.15 1032.08 1032.33 1032.48 1032.55 1032.49 1032.46 1031.89 1030.38 1029.89 1029.42 1028.90 1028.33 1027.75 1027.04 1026.30 1025.46 1024.68 1023.94 1023.29 1022.59 1021.83 1021.26 1020.57 1019.50 1018.23 1017.17 1016.12 1015.12 1014.42 1013.31 1011.78 1010.72 1010.16
1033.58 1034.39 1035.41 1036.12 1036.46 1034.81 1033.37 1032.66 1032.43 1033.00 1032.28 1031.38 1031.42 1031.45 1031.66 1032.00 1031.36 1030.48 1029.84 1029.40 1028.98 1028.51 1028.01 1027.46 1027.00 1026.40 1025.58 1024.80 1024.08 1023.37 1022.69 1022.23 1021.56 1020.55 1019.41 1018.13 1017.01 1016.05 1015.66 1014.36 1012.69 1012.31 1011.38 1010.77
1033.94 1034.81 1035.40 1035.82 1035.73 1034.11 1032.52 1032.24 1032.36 1031.62 1031.09 1030.94 1030.77 1030.67 1030.71 1030.68 1030.36 1029.91 1029.51 1029.24 1028.77 1028.28 1027.82 1027.42 1026.91 1026.36 1025.61 1024.88 1024.16 1023.41 1022.72 1021.91 1020.91 1020.05 1019.22 1018.38 1017.63 1016.26 1014.94 1014.30 1013.53 1012.80 1012.10 1011.60
1033.80 1033.71 1034.32 1034.65 1033.48 1032.32 1031.65 1031.27 1030.66 1030.58 1030.59 1030.35 1030.36 1030.08 1030.14 1030.02 1029.77 1029.60 1029.33 1029.04 1028.70 1028.34 1027.95 1027.38 1026.95 1026.41 1025.84 1025.17 1024.48 1023.72 1022.95 1022.15 1021.20 1020.18 1019.19 1018.53 1017.39 1016.51 1015.99 1015.01 1014.25 1013.44 1012.87 1012.19
1033.06 1032.97 1033.22 1033.22 1031.74 1031.40 1030.91 1030.43 1030.05 1029.83 1029.83 1029.71 1029.76 1029.74 1029.74 1029.71 1029.51 1029.34 1029.12 1028.94 1028.73 1028.45 1028.02 1027.52 1027.00 1026.51 1025.97 1025.41 1024.75 1024.13 1023.14 1022.25 1021.40 1020.46 1019.69 1018.87 1018.01 1017.21 1016.63 1015.90 1015.28 1014.33 1013.46 1012.68
1032.70 1032.57 1032.04 1031.69 1031.04 1030.71 1030.20 1029.84 1029.49 1029.25 1029.43 1029.60 1029.43 1029.43 1029.55 1029.55 1029.43 1029.22 1029.09 1028.95 1028.80 1028.47 1028.04 1027.64 1027.23 1026.66 1026.11 1025.52 1024.89 1024.23 1023.40 1022.58 1021.91 1021.14 1020.34 1019.47 1018.75 1018.10 1017.33 1016.35 1015.54 1014.69 1014.06 1013.80
1031.43 1030.95 1031.20 1030.52 1030.07 1030.27 1029.97 1029.54 1029.19 1029.23 1029.39 1029.44 1029.53 1029.48 1029.39 1029.48 1029.51 1029.27 1029.18 1029.02 1028.77 1028.47 1028.12 1027.73 1027.26 1026.83 1026.27 1025.69 1025.07 1024.33 1023.56 1022.97 1022.23 1021.50 1020.75 1019.91 1019.00 1017.87 1016.99 1016.17 1015.59 1014.74 1013.96 1013.77
Wind_Speed
13 14 11 8 7 3 5 7 11 5 5 8 6 5 8 10 13 16 16 16 17 19 16 16 17 19 18 18 19 20 20 19 15 12 11 8 9 9 7 9 11 11 10 12
9 14 6 4 9 11 10 13 14 8 12 9 3 5 5 12 14 14 16 16 18 19 20 21 21 20 20 20 19 19 19 19 14 11 12 10 8 6 8 5 10 11 13 13
11 3 8 11 9 13 8 9 10 15 15 11 10 4 4 9 13 13 15 15 17 19 20 21 22 21 20 21 21 19 19 19 16 17 12 12 3 3 5 9 8 11 15 15
8 5 10 6 10 11 13 8 16 18 9 5 4 3 9 11 12 16 17 18 17 19 18 18 21 22 21 19 19 19 19 18 16 18 14 15 10 6 6 7 5 8 15 16
2 6 6 7 11 11 10 18 19 21 16 6 9 2 8 10 15 18 19 19 20 19 19 19 19 20 19 18 18 18 17 18 18 17 15 11 12 10 6 6 8 11 11 16
4 4 4 3 20 4 10 12 18 1 3 3 7 7 8 11 16 18 18 18 18 19 18 19 17 18 18 18 18 17 19 18 18 17 17 16 15 13 8 9 8 8 9 11
6 2 7 4 9 10 21 13 7 5 2 5 12 12 6 9 11 13 16 17 16 16 16 18 19 19 20 21 21 17 20 19 19 19 17 16 15 15 10 9 11 10 8 8
6 7 8 14 4 6 12 4 3 7 5 4 9 6 6 10 10 14 14 12 16 18 16 17 18 17 18 20 21 20 20 19 18 18 17 15 13 9 8 9 8 10 10 12
6 5 4 7 8 4 11 7 10 5 6 4 4 8 5 16 15 15 16 17 16 17 19 18 18 16 18 18 20 20 20 19 18 17 15 14 15 14 13 13 9 7 12 9
2 5 3 7 6 4 2 7 6 5 5 3 3 3 4 15 16 16 16 17 17 16 16 18 16 17 16 17 16 18 18 18 18 18 15 13 13 14 13 11 11 9 8 12
2 2 8 4 4 4 7 6 4 2 4 3 3 2 3 8 12 13 14 15 16 16 16 16 16 16 15 16 17 17 17 18 18 18 15 14 13 14 13 12 12 12 12 14
2 3 4 3 4 3 1 3 4 3 5 3 2 4 4 5 9 11 12 13 14 15 15 16 15 16 16 16 16 17 17 17 17 18 16 15 14 15 14 14 13 13 12 8
1 2 4 6 3 6 4 8 6 3 4 2 2 7 4 8 9 11 11 13 13 14 15 14 15 15 15 16 15 16 16 17 17 17 17 15 15 15 15 15 14 12 14 10
3 2 6 6 8 3 3 6 6 4 3 3 4 7 8 8 8 11 11 11 12 12 13 13 12 14 15 15 15 14 15 15 15 16 17 16 15 15 14 15 13 14 13 10
3 2 4 5 6 1 4 4 2 2 5 5 7 5 9 9 8 9 8 10 11 12 12 12 12 13 13 15 15 15 14 15 14 15 15 16 16 14 14 15 14 12 11 11
1 4 2 6 7 4 7 5 5 4 3 5 2 7 7 7 5 6 10 8 12 11 12 12 11 13 14 14 15 15 15 16 14 14 14 15 15 15 15 14 15 13 12 11
2 1 2 5 3 4 5 8 5 4 5 6 3 10 2 7 9 7 8 10 10 10 10 11 12 13 13 14 13 14 15 15 14 13 14 14 15 15 15 15 16 13 13 14
2 2 1 3 4 4 8 1 4 7 7 7 6 7 8 8 8 10 8 6 9 9 8 10 11 13 13 13 13 13 14 14 14 13 14 14 14 15 15 16 17 17 12 12
5 0 3 1 2 6 3 4 5 6 11 8 7 7 7 5 3 8 8 5 7 7 7 7 9 12 12 12 13 13 12 12 13 14 12 13 13 14 15 16 18 16 14 13
4 1 4 1 0 4 5 5 3 4 9 4 6 7 5 3 4 6 7 7 7 7 7 8 10 11 12 13 12 11 11 12 13 13 13 12 12 12 12 15 15 15 15 13
3 1 3 1 4 8 4 3 4 1 7 3 3 6 3 2 6 9 10 6 6 6 9 9 10 9 12 12 13 11 11 12 13 13 12 13 13 13 11 12 14 13 16 14
3 3 2 0 3 7 5 2 4 7 5 4 6 4 5 6 9 9 7 7 8 8 8 9 9 9 10 12 12 13 13 14 14 14 12 13 13 10 11 12 15 12 13 15
3 7 5 8 7 6 6 8 8 4 6 6 4 6 5 7 7 8 6 7 7 8 8 9 8 10 10 11 12 13 13 13 14 14 13 12 14 12 11 9 12 12 10 10
3 4 4 1 4 7 7 7 8 7 7 6 6 5 6 6 7 7 6 6 6 6 7 8 10 11 11 11 12 11 13 13 12 13 12 12 12 14 11 8 6 8 11 9
6 4 4 5 6 7 7 6 8 7 4 4 5 4 5 5 7 6 6 6 5 6 6 8 9 10 12 12 12 11 12 12 10 11 10 11 9 10 9 8 6 6 8 11
7 7 6 7 8 5 6 5 1 1 2 5 4 6 6 4 7 6 6 5 5 7 7 9 10 10 10 10 11 13 12 13 13 10 8 8 8 9 9 8 9 11 11 12
Wind_Direction
33 59 59 45 42 313 306 301 299 272 29 21 89 89 35 23 26 23 18 8 6 3 352 354 356 350 353 357 353 354 352 349 348 341 332 213 213 197 195 195 198 173 177 163
45 58 75 59 22 14 357 319 309 291 352 351 145 95 36 43 29 19 13 10 5 358 359 356 356 355 352 352 353 350 353 347 344 339 320 296 193 199 204 188 188 194 172 161
85 351 69 39 3 349 340 290 318 293 319 287 240 165 54 27 27 17 18 12 6 1 357 356 354 352 350 353 350 350 347 346 344 338 332 330 175 138 170 191 188 191 178 171
89 3 49 23 6 356 325 298 297 281 297 261 253 199 45 14 13 15 10 9 1 2 358 357 357 353 352 348 344 346 348 345 346 342 338 326 312 204 200 187 198 190 186 183
11 18 15 13 333 327 264 301 290 279 270 262 251 100 358 5 9 9 2 1 359 357 360 359 359 353 349 347 347 344 347 346 348 346 340 332 336 309 190 166 194 199 189 184
63 320 19 319 319 289 283 304 300 227 114 231 252 148 36 13 3 355 357 354 352 353 355 355 358 358 349 350 352 348 346 348 347 346 343 340 341 327 310 175 194 200 198 189
338 352 341 353 336 326 354 359 341 347 58 49 43 77 70 28 10 3 351 349 356 353 354 355 355 353 354 351 350 352 348 347 347 346 345 334 342 321 321 300 193 186 205 193
30 344 1 337 13 282 313 330 285 312 349 34 36 68 35 6 9 7 353 357 355 353 352 352 348 347 348 351 349 352 350 345 347 345 339 341 330 328 321 311 267 192 199 209
6 286 323 339 351 44 307 357 288 268 83 76 65 1 342 3 5 359 350 357 352 355 348 342 340 343 343 346 349 346 349 347 348 342 340 340 341 342 330 313 317 245 195 210
7 302 327 315 12 7 259 287 356 339 354 56 88 59 354 345 348 346 350 348 346 345 341 344 341 341 339 340 341 342 347 349 347 344 344 339 342 335 326 324 319 327 228 201
73 97 307 27 9 323 347 350 347 194 26 355 23 313 282 334 337 338 338 338 340 339 339 337 339 338 335 338 342 343 345 346 351 348 341 339 340 339 341 336 341 330 303 222
251 169 301 254 191 74 33 291 319 79 344 10 99 261 308 318 331 338 328 330 334 334 334 337 338 338 334 339 343 343 341 344 350 346 340 342 342 347 346 345 338 330 311 330
352 356 329 327 20 8 24 329 330 142 85 297 36 279 307 326 328 324 322 322 326 328 330 335 340 340 335 334 340 340 338 340 350 346 338 344 346 345 344 344 342 335 331 335
122 173 163 211 241 212 326 320 339 104 77 241 211 270 303 313 312 312 311 314 317 321 326 325 334 337 334 333 335 335 333 334 346 340 341 343 347 347 342 343 343 338 332 330
86 271 197 239 232 178 196 256 316 90 204 142 256 226 270 276 275 276 283 307 321 323 323 324 329 331 333 334 334 333 332 332 340 338 342 342 343 353 342 344 339 340 335 328
11 276 208 275 197 169 246 236 245 216 208 285 268 282 220 273 275 309 302 309 312 311 312 318 322 327 333 332 333 331 330 329 332 330 333 340 347 343 357 341 340 339 339 329
292 264 295 283 148 253 294 237 207 233 202 166 212 235 326 302 305 289 288 306 292 297 304 315 323 323 326 329 328 328 325 325 328 326 333 338 343 343 347 349 348 346 343 333
267 272 237 308 55 11 244 265 190 196 257 214 268 268 246 239 266 277 272 245 289 298 302 314 323 326 324 325 327 326 329 327 329 329 334 334 333 343 345 346 354 352 347 342
202 252 317 105 222 267 271 225 188 172 278 231 218 265 274 284 325 296 290 288 274 271 293 290 306 319 320 323 327 328 327 333 340 335 329 328 324 332 348 348 352 349 351 347
158 137 126 37 52 259 247 343 132 130 292 270 214 264 266 0 350 259 273 295 290 306 302 313 315 320 322 328 330 331 332 340 338 331 326 325 329 326 342 350 351 354 356 350
287 320 194 157 222 288 258 271 111 275 249 286 263 276 273 213 218 267 297 298 301 303 315 322 325 315 321 327 332 332 334 334 325 325 327 332 338 335 328 344 357 355 359 358
212 138 242 70 39 297 205 263 177 228 295 256 282 271 269 267 285 290 305 306 308 309 321 321 322 321 319 328 333 333 332 328 331 332 331 334 333 334 335 349 357 349 1 5
234 181 191 175 216 223 234 219 244 226 239 275 270 274 278 279 282 305 287 298 301 312 318 319 321 325 328 330 332 329 327 332 331 332 338 333 337 343 332 342 355 0 353 360
238 170 215 199 232 236 256 261 247 251 252 277 267 285 284 295 298 293 299 311 314 318 318 328 330 331 331 332 331 330 330 333 332 336 336 335 340 339 339 336 343 354 6 357
205 158 215 258 283 289 273 260 266 271 270 276 306 298 301 300 307 300 309 319 324 317 325 336 333 331 334 335 335 338 339 339 336 336 336 336 337 331 333 339 332 355 22 12
184 192 170 220 223 202 259 276 346 68 310 302 297 306 314 316 307 313 325 326 324 335 334 336 334 338 332 338 347 347 354 353 349 340 336 332 332 337 341 347 342 347 5 17